This is the latest recevied weather packets stored in our database for station/object GW1699. If no packets are shown the sender has not sent any weather packets the latest 10 day(s).
| Time | Temp. | Humidity | Pressure | Rain* | Wind** | Luminosity | Snow |
|---|---|---|---|---|---|---|---|
| 1777465467 | 15° C | 99% | 1009.8 hPa | 7.87 mm | - | - | - |
| 1777464764 | 14.44° C | 99% | 1009.4 hPa | 1.02 mm | - | - | - |
| 1777464393 | 14.44° C | 99% | 1009.1 hPa | 0 mm | - | - | - |
| 1777462580 | 13.89° C | 99% | 1008.8 hPa | 0 mm | - | - | - |
| 1777453241 | 13.33° C | 99% | 1010.4 hPa | 0 mm | - | - | - |
| 1777452889 | 13.33° C | 99% | 1010.4 hPa | 0 mm | - | - | - |
| 1777452153 | 13.33° C | 99% | 1010.1 hPa | 0 mm | - | - | - |
| 1777448568 | 13.89° C | 99% | 1010.4 hPa | 0 mm | - | - | - |
| 1777448179 | 13.89° C | 99% | 1010.8 hPa | 0 mm | - | - | - |
| 1777445669 | 13.89° C | 99% | 1010.4 hPa | 0 mm | - | - | - |
| 1777445330 | 13.89° C | 99% | 1010.4 hPa | 0 mm | - | - | - |
| 1777443878 | 13.89° C | 99% | 1010.8 hPa | 0 mm | - | - | - |
| 1777442072 | 14.44° C | 99% | 1011.5 hPa | 0 mm | - | - | - |
| 1777441332 | 14.44° C | 99% | 1011.8 hPa | 0 mm | - | - | - |
| 1777438126 | 14.44° C | 99% | 1012.5 hPa | 0 mm | - | - | - |
| 1777436667 | 13.89° C | 99% | 1012.8 hPa | 0 mm | - | - | - |
| 1777433447 | 14.44° C | 99% | 1012.8 hPa | 12.7 mm | - | - | - |
| 1777431256 | 14.44° C | 99% | 1012.8 hPa | 12.7 mm | - | - | - |
| 1777430213 | 15° C | 99% | 1012.5 hPa | 12.7 mm | - | - | - |
| 1777428392 | 15.56° C | 99% | 1013.2 hPa | 12.7 mm | - | - | - |
| 1777421908 | 17.22° C | 95% | 1011.8 hPa | 12.7 mm | - | - | - |
| 1777420098 | 18.33° C | 91% | 1011.5 hPa | 12.7 mm | - | - | - |
| 1777418667 | 19.44° C | 89% | 1011.8 hPa | 12.7 mm | - | - | - |
| 1777417608 | 19.44° C | 89% | 1011.8 hPa | 12.7 mm | - | - | - |
| 1777417237 | 19.44° C | 90% | 1011.8 hPa | 12.7 mm | - | - | - |
* Rain since midnight (hover to see other rain measurements)
** Current wind speed in m/s (hover to see current wind gust speed)